FW5122 Weather Reports


Display with metric or nautical units.
time (UTC)temp
F
wind
direction
speed
MPH
gust
MPH
rain 1hr
in
rain 24hr
in
rain mn
in
humidity
%
barometer
mb
20260902220631 100 61 0.0 14.0 0.00 0.00 0.00 39 1012.1
20260902215931 101 104 8.0 14.0 0.00 0.00 0.00 39 1012.4
20260902215231 100 43 2.0 14.0 0.00 0.00 0.00 39 1012.1
20260902214531 101 103 11.0 14.0 0.00 0.00 0.00 38 1012.4
20260902213831 101 49 8.0 14.0 0.00 0.00 0.00 38 1012.4
20260902212431 102 57 2.0 14.0 0.00 0.00 0.00 38 1012.4
20260902211731 102 69 2.0 8.0 0.00 0.00 0.00 38 1012.4
20260902210331 105 61 2.0 8.0 0.00 0.00 0.00 37 1012.4
20260902204931 104 323 8.0 12.0 0.00 0.00 0.00 38 1012.8
20260902204231 104 336 8.0 12.0 0.00 0.00 0.00 38 1013.1
20260902202831 103 58 2.0 12.0 0.00 0.00 0.00 40 1012.8
20260902201431 100 55 0.0 12.0 0.00 0.00 0.00 41 1013.1
20260902200731 99 20 5.0 12.0 0.00 0.00 0.00 42 1013.5
20260902200031 98 61 11.0 10.0 0.00 0.00 0.00 42 1013.8
20260902195331 98 75 11.0 10.0 0.00 0.00 0.00 43 1013.8
20260902194631 98 50 5.0 8.0 0.00 0.00 0.00 44 1013.8
20260902193930 97 75 5.0 8.0 0.00 0.00 0.00 44 1013.8
20260902192531 98 57 5.0 8.0 0.00 0.00 0.00 44 1014.1
20260902191831 98 97 5.0 8.0 0.00 0.00 0.00 45 1014.5
20260902191130 97 79 8.0 8.0 0.00 0.00 0.00 45 1014.5
20260902190431 97 85 5.0 8.0 0.00 0.00 0.00 46 1014.5
20260902185030 98 60 5.0 14.0 0.00 0.00 0.00 45 1014.5
20260902184331 99 51 2.0 14.0 0.00 0.00 0.00 45 1015.1
20260902183630 99 56 5.0 14.0 0.00 0.00 0.00 45 1015.1
20260902182930 99 48 0.0 14.0 0.00 0.00 0.00 46 1015.1
20260902181530 97 344 8.0 14.0 0.00 0.00 0.00 48 1015.5
20260902180831 98 65 5.0 14.0 0.00 0.00 0.00 47 1015.5
20260902180130 98 142 19.0 14.0 0.00 0.00 0.00 47 1015.8
20260902175430 97 25 5.0 10.0 0.00 0.00 0.00 50 1016.2
20260902173330 96 81 8.0 10.0 0.00 0.00 0.00 53 1016.5
20260902172630 95 100 5.0 10.0 0.00 0.00 0.00 53 1016.2
20260902171931 94 78 5.0 10.0 0.00 0.00 0.00 55 1016.5
20260902170530 92 73 8.0 8.0 0.00 0.00 0.00 58 1016.8
20260902165830 90 61 5.0 8.0 0.00 0.00 0.00 60 1016.5
20260902165131 89 60 2.0 8.0 0.00 0.00 0.00 61 1016.8
20260902164430 90 62 2.0 6.0 0.00 0.00 0.00 59 1016.8
20260902163731 90 59 5.0 6.0 0.00 0.00 0.00 59 1016.8
20260902162330 92 63 5.0 6.0 0.00 0.00 0.00 59 1016.8
20260902161631 92 26 0.0 6.0 0.00 0.00 0.00 58 1016.8
20260902160930 92 58 5.0 6.0 0.00 0.00 0.00 58 1017.2
20260902160230 93 68 2.0 6.0 0.00 0.00 0.00 57 1016.8
20260902155531 92 60 2.0 6.0 0.00 0.00 0.00 59 1016.8
20260902154830 91 51 2.0 6.0 0.00 0.00 0.00 60 1017.2
20260902154131 90 0 5.0 6.0 0.00 0.00 0.00 62 1017.2
20260902153430 89 55 2.0 6.0 0.00 0.00 0.00 62 1017.2
20260902152030 89 66 5.0 6.0 0.00 0.00 0.00 63 1016.8
20260902151331 88 60 0.0 6.0 0.00 0.00 0.00 64 1017.2
20260902145931 86 63 5.0 8.0 0.00 0.00 0.00 65 1016.8
20260902144530 86 61 2.0 8.0 0.00 0.00 0.00 66 1017.2
20260902143130 85 62 0.0 8.0 0.00 0.00 0.00 67 1016.8
20260902142430 85 70 5.0 8.0 0.00 0.00 0.00 66 1017.2
20260902141730 86 59 2.0 8.0 0.00 0.00 0.00 65 1016.8
20260902141030 86 72 8.0 8.0 0.00 0.00 0.00 66 1016.8
20260902140333 86 59 0.0 6.0 0.00 0.00 0.00 66 1016.8
20260902135633 85 57 2.0 6.0 0.00 0.00 0.00 67 1016.8
20260902134933 85 58 2.0 6.0 0.00 0.00 0.00 67 1016.8
20260902134233 84 73 5.0 6.0 0.00 0.00 0.00 69 1016.8
20260902133533 82 84 2.0 6.0 0.00 0.00 0.00 70 1016.5
20260902132833 81 75 5.0 6.0 0.00 0.00 0.00 70 1016.5
20260902132133 81 71 2.0 6.0 0.00 0.00 0.00 70 1016.8
20260902131433 80 75 5.0 6.0 0.00 0.00 0.00 71 1016.8
20260902130733 80 58 2.0 6.0 0.00 0.00 0.00 72 1016.8
20260902130032 79 63 2.0 4.0 0.00 0.00 0.00 73 1016.8
20260902124833 78 84 2.0 4.0 0.00 0.00 0.00 73 1016.5
20260902123433 78 59 0.0 0.0 0.00 0.00 0.00 74 1016.5
20260902122733 78 59 0.0 0.0 0.00 0.00 0.00 74 1016.2
20260902122033 78 59 0.0 0.0 0.00 0.00 0.00 74 1016.5
20260902121333 78 58 0.0 0.0 0.00 0.00 0.00 74 1016.2
20260902120633 78 61 0.0 0.0 0.00 0.00 0.00 74 1016.5
20260902115933 78 59 0.0 0.0 0.00 0.00 0.00 73 1016.2
20260902115233 78 59 0.0 0.0 0.00 0.00 0.00 73 1016.2
20260902114536 78 59 0.0 0.0 0.00 0.00 0.00 73 1016.2
20260902112433 78 59 0.0 0.0 0.00 0.00 0.00 73 1016.5
20260902111032 79 59 0.0 0.0 0.00 0.00 0.00 72 1016.2
20260902110332 79 59 0.0 0.0 0.00 0.00 0.00 72 1016.5
20260902105633 79 59 0.0 0.0 0.00 0.00 0.00 71 1016.5
20260902104933 79 59 0.0 0.0 0.00 0.00 0.00 71 1016.2
20260902104232 79 59 0.0 0.0 0.00 0.00 0.00 71 1016.5
20260902103533 79 59 0.0 0.0 0.00 0.00 0.00 70 1016.2
20260902102832 79 61 0.0 0.0 0.00 0.00 0.00 70 1016.2
20260902102132 79 58 0.0 0.0 0.00 0.00 0.00 70 1016.2
20260902101432 79 59 0.0 0.0 0.00 0.00 0.00 70 1016.5
20260902100033 79 59 0.0 0.0 0.00 0.00 0.00 70 1016.5
20260902093933 80 59 0.0 0.0 0.00 0.00 0.00 69 1016.2
20260902093232 80 63 0.0 0.0 0.00 0.00 0.00 69 1016.5
20260902092532 80 58 0.0 2.0 0.00 0.00 0.00 69 1016.2
20260902091833 80 59 0.0 4.0 0.00 0.00 0.00 68 1016.2
20260902091133 80 59 0.0 4.0 0.00 0.00 0.00 68 1016.5
20260902090434 81 59 0.0 4.0 0.00 0.00 0.00 67 1016.2
20260902085732 81 59 0.0 4.0 0.00 0.00 0.00 67 1016.2
20260902083632 82 59 0.0 8.0 0.00 0.00 0.00 66 1015.8
20260902082933 82 58 0.0 8.0 0.00 0.00 0.00 65 1016.2
20260902082232 82 64 2.0 8.0 0.00 0.00 0.00 65 1016.2
20260902081534 82 62 0.0 8.0 0.00 0.00 0.00 65 1016.2
20260902080135 82 61 5.0 8.0 0.00 0.00 0.00 64 1016.2
20260902075434 83 58 0.0 6.0 0.00 0.00 0.00 64 1016.2
20260902074733 83 59 0.0 8.0 0.00 0.00 0.00 64 1016.2
20260902073333 83 57 0.0 8.0 0.00 0.00 0.00 63 1015.8
20260902072632 84 59 0.0 8.0 0.00 0.00 0.00 63 1016.2
20260902071933 84 62 2.0 8.0 0.00 0.00 0.00 63 1016.2
20260902071232 84 66 2.0 8.0 0.00 0.00 0.00 62 1016.2
20260902070532 84 72 2.0 8.0 0.00 0.00 0.00 62 1016.2
20260902065832 84 54 5.0 8.0 0.00 0.00 0.00 62 1016.5
20260902065132 84 68 8.0 8.0 0.00 0.00 0.00 62 1015.8
20260902063732 84 60 0.0 8.0 0.00 0.00 0.00 62 1015.8
20260902063032 85 60 5.0 8.0 0.00 0.00 0.00 61 1015.8
20260902062332 85 70 5.0 8.0 0.00 0.00 0.00 61 1016.2
20260902061632 85 70 8.0 8.0 0.00 0.00 0.00 61 1016.2
20260902060932 85 75 5.0 8.0 0.00 0.00 0.00 61 1016.2
20260902060232 85 61 2.0 8.0 0.00 0.00 0.00 60 1016.2
20260902055536 85 58 2.0 8.0 0.00 0.00 0.00 60 1015.8
20260902054132 86 73 8.0 8.0 0.00 0.00 0.00 59 1015.8
20260902053433 86 62 2.0 8.0 0.00 0.00 0.00 59 1016.2
20260902052732 86 60 0.0 8.0 0.00 0.00 0.00 59 1016.2
20260902052032 86 72 5.0 10.0 0.00 0.00 0.00 59 1015.8
20260902051332 86 60 0.0 10.0 0.00 0.00 0.00 58 1016.2
20260902050632 86 75 2.0 12.0 0.00 0.00 0.00 58 1016.2
20260902045232 87 64 2.0 14.0 0.00 0.00 0.00 57 1015.8
20260902044532 87 29 5.0 14.0 0.00 0.00 0.00 57 1016.2
20260902043832 87 56 8.0 14.0 0.00 0.00 0.00 56 1015.8
20260902043133 87 73 8.0 14.0 0.00 0.00 0.00 56 1015.8
20260902042432 88 60 2.0 14.0 0.00 0.00 0.00 55 1015.8
20260902041732 88 68 5.0 14.0 0.00 0.00 0.00 55 1015.8
20260902041033 88 91 5.0 14.0 0.00 0.00 0.00 54 1015.8
20260902040333 89 58 8.0 14.0 0.00 0.00 0.00 53 1015.8
20260902035632 88 89 5.0 12.0 0.00 0.00 0.00 53 1015.8
20260902034932 88 144 14.0 10.0 0.00 0.00 0.00 54 1015.8
20260902033532 87 58 0.0 2.0 0.00 0.00 0.00 54 1015.1
20260902032832 87 60 0.0 0.0 0.00 0.00 0.00 54 1015.1
20260902032132 88 59 0.0 0.0 0.00 0.00 0.00 53 1015.1
20260902031432 88 59 0.0 0.0 0.00 0.00 0.00 53 1015.1
20260902030734 88 59 0.0 0.0 0.00 0.00 0.00 53 1015.1
20260902025332 89 59 0.0 0.0 0.00 0.00 0.00 52 1014.8
20260902024632 89 58 0.0 4.0 0.00 0.00 0.00 51 1014.8
20260902023932 89 59 0.0 4.0 0.00 0.00 0.00 51 1014.8
20260902022531 90 59 0.0 4.0 0.00 0.00 0.00 50 1014.5
20260902021832 90 59 0.0 4.0 0.00 0.00 0.00 50 1014.5
20260902021132 90 60 0.0 4.0 0.00 0.00 0.00 49 1014.1
20260902020432 90 58 0.0 4.0 0.00 0.00 0.00 49 1014.1
20260902015032 90 59 0.0 2.0 0.00 0.00 0.00 49 1014.1
20260902014332 91 59 0.0 2.0 0.00 0.00 0.00 49 1013.8
20260902013631 91 59 0.0 2.0 0.00 0.00 0.00 48 1013.8
20260902012232 92 60 0.0 4.0 0.00 0.00 0.00 47 1013.8
20260902011532 92 59 0.0 6.0 0.00 0.00 0.00 46 1013.8
20260902010831 93 59 0.0 6.0 0.00 0.00 0.00 46 1013.8
20260902010132 93 64 0.0 6.0 0.00 0.00 0.00 45 1013.8
20260902005431 94 60 0.0 6.0 0.00 0.00 0.00 45 1013.8
20260902004032 94 58 0.0 8.0 0.00 0.00 0.00 44 1013.5
20260902003332 95 57 0.0 8.0 0.00 0.00 0.00 43 1013.8
20260902002631 95 66 5.0 8.0 0.00 0.00 0.00 43 1013.8
20260902001934 95 61 0.0 8.0 0.00 0.00 0.00 43 1013.8
20260902001232 96 79 5.0 8.0 0.00 0.00 0.00 43 1013.8
20260902000534 95 59 0.0 8.0 0.00 0.00 0.00 43 1013.8
20260901235831 96 59 2.0 8.0 0.00 0.00 0.00 43 1014.1
20260901235132 96 59 0.0 6.0 0.00 0.00 0.00 43 1014.1
20260901234433 96 58 0.0 6.0 0.00 0.00 0.00 43 1013.8
20260901233032 97 57 2.0 8.0 0.00 0.00 0.00 42 1014.1
20260901232332 97 47 2.0 8.0 0.00 0.00 0.00 42 1014.1
20260901231632 96 59 0.0 10.0 0.00 0.00 0.00 42 1014.1
20260901230931 97 64 5.0 10.0 0.00 0.00 0.00 42 1014.1
20260901230231 97 60 0.0 10.0 0.00 0.00 0.00 42 1014.1
20260901225531 97 132 8.0 10.0 0.00 0.00 0.00 42 1014.1
20260901224836 97 51 5.0 10.0 0.00 0.00 0.00 42 1014.1
20260901224132 97 109 8.0 10.0 0.00 0.00 0.00 42 1014.1
20260901222732 98 72 5.0 10.0 0.00 0.00 0.00 42 1014.1
20260901222031 98 62 2.0 10.0 0.00 0.00 0.00 42 1014.1